Location: B�rgermoos
(47.6500°N, 9.0667°E)
Time: 19:03:02
(UTC+00:00)

Courier 1B Rocket - All Passes

Search period start: 27 July 2021 00:00
Search period end: 06 August 2021 00:00
Orbit: 920 x 1202 km, 28.2° (Epoch: 26 July)

Date Brightness Start Highest point End Pass type
(mag) Time Alt. Az. Time Alt. Az. Time Alt. Az.
27 Jul - 04:32:31 10° SSW 04:34:41 12° S 04:36:50 10° SSE daylight
27 Jul - 06:26:15 10° SSW 06:26:41 10° S 06:27:08 10° S daylight
28 Jul - 03:32:28 10° S 03:34:05 11° S 03:35:42 10° SSE daylight
28 Jul - 05:24:16 10° SSW 05:26:06 11° S 05:27:57 10° S daylight
29 Jul - 04:23:16 10° SSW 04:25:30 12° S 04:27:45 10° SSE daylight
30 Jul - 03:22:36 10° SSW 03:24:55 12° S 03:27:12 10° SSE visible
31 Jul - 02:22:16 10° SSW 02:24:18 12° S 02:26:20 10° SSE visible
31 Jul - 04:14:28 10° SSW 04:16:20 11° S 04:18:12 10° S daylight
01 Aug - 01:22:34 10° S 01:23:41 10° S 01:24:48 10° SSE visible
01 Aug - 03:13:16 10° SSW 03:15:45 12° S 03:18:11 10° SSE visible
02 Aug - 02:12:25 10° SSW 02:15:08 13° S 02:17:47 10° SSE visible
03 Aug - 01:11:51 10° SSW 01:14:29 12° S 01:17:04 10° SSE visible
03 Aug - 03:04:21 10° SSW 03:06:34 12° S 03:08:44 10° SSE visible
04 Aug - 00:11:41 10° S 00:13:50 12° S 00:15:56 10° SSE visible
04 Aug - 02:03:02 10° SSW 02:05:56 13° S 02:08:47 10° SSE visible
05 Aug - 01:02:03 10° SSW 01:05:17 14° S 01:08:25 10° SSE visible
05 Aug - 02:56:09 10° SSW 02:57:20 10° SSW 02:58:31 10° S visible
